Location: Brede
(50.9167°N, 0.6000°E)
Time: 17:55:41
(UTC+00:00)

CZ-4 R/B - Pass Details

Date: 08 August 2020
Orbit: 682 x 752 km, 98.5° (Epoch: 23 September)

Event Time Altitude Azimuth Distance (km) Brightness Sun altitude
Rises 00:06:22 0° 18° (NNE) 3,183 8.5 -23.0°
Reaches altitude 10° 00:08:43 10° 24° (NNE) 2,264 7.4 -23.0°
Maximum altitude 00:13:35 51° 100° (E) 942 4.3 -23.0°
Enters shadow 00:14:21 47° 130° (SE) 996 4.3 -23.0°
